Retour au catalogue

COSMOS 375 DEB

ActifLEO
NORAD 19949·DEBRIS·🇷🇺 Russia

Lancé Oct 30, 1970 depuis Baikonur Cosmodrome

Loading…

Prochains Passages (prochaines 24 heures)

TLE

FraisSource: Space-Track

Époque: Sep 14, 2026, 03:25 UTC

1 19949U 70091AX  26257.14237251  .00003120  00000-0  71710-3 0  9991
2 19949  62.6123  41.5805 0480047 208.6344 148.7565 14.04504702892065

Suivez COSMOS 375 DEB en temps réel avec AllMySat

Download on the App Store